www.pogodaiklimat.ru

Погода и климат >> Архив погоды >> Кувейт >> Минагиш


ПОГОДА в Минагише

  • Прогноз погоды в Минагише
  • Монитор погоды в Минагише

АРХИВ ПОГОДЫ в Минагише

Время (UTC), дата Ветер
(напр.,м/с)
 
Видим.   Явления Облачность Т
(С)
Тd
(С)
f
(%)
Тe
(С)
Тes
(С)
Комфортность P
(гПа)
Po
(гПа)
Тmin
(С)
Tmax
(С)
R
(мм)
R24
(мм)
S
(см)
06 17.02 З 4-5
{6}
н/о н/о +15.1 +2.5 43 +14 +14 1022.4 999.7
09 17.02 СЗ 8-11
{11}
н/о н/о +19.3 -1.6 24 +19 +19 1021.0 998.7
12 17.02 СЗ 9-12
{14}
н/о н/о +20.6 -2.3 21 +20 +20 1018.6 996.4
15 17.02 СЗ 5-6
{13}
н/о н/о +17.5 -0.3 30 +17 +17 1018.8 996.4
18 17.02 СЗ 3-4
{13}
н/о н/о +13.0 +4.9 58 +12 +12 1020.2 997.4
21 17.02 З 2-2
{4}
н/о н/о +11.6 +5.6 67 +11 +11 1019.7 996.8 +7.0 +20.9
00 18.02 СЗ 3-4
{4}
н/о н/о +10.4 +5.8 73 +8 +8 1019.2 996.2
03 18.02 СЗ 3-3
{3}
н/о н/о +9.1 +6.3 83 +7 +7 1019.1 996.0
06 18.02 СЗ 2-3
{4}
н/о н/о +15.3 +6.7 56 +16 +16 1019.4 996.8
09 18.02 С 4-6
{7}
н/о н/о +18.9 +0.3 29 +19 +19 1017.6 995.3
15 18.02 С 4-5
{8}
н/о н/о +17.8 0.0 30 +18 +18 1014.1 991.8
18 18.02 С 3-4
{8}
н/о н/о +15.7 +2.8 42 +16 +16 1014.9 992.5
21 18.02 В 2-3
{5}
н/о н/о +12.7 +4.2 56 +12 +12 1014.5 991.8 +8.8 +20.0
00 19.02 З 1-1
{5}
н/о н/о +11.9 +6.9 71 +12 +12 1014.2 991.5
03 19.02 С 6-8
{8}
н/о н/о +12.8 +5.0 59 +10 +10 1014.4 991.7
06 19.02 С 7-10
{11}
н/о н/о +14.8 +4.0 48 +13 +13 1016.0 993.5
09 19.02 С 8-11
{14}
н/о н/о +17.0 +2.7 38 +16 +16 1016.2 993.8
12 19.02 СЗ 9-13
{14}
н/о н/о +17.3 +1.2 34 +16 +16 1015.6 993.3
15 19.02 СЗ 6-8
{13}
н/о н/о +15.5 +1.2 38 +14 +14 1017.3 994.8
18 19.02 СЗ 4-4
{13}
н/о н/о +11.9 +3.4 56 +10 +10 1019.5 996.7
21 19.02 З 3-4
{5}
н/о н/о +9.9 +4.4 69 +8 +8 1020.1 997.1 +9.9 +18.1
00 20.02 З 5-6
{6}
н/о н/о +8.8 +3.8 71 +6 +6 1020.0 996.9
03 20.02 З 4-5
{6}
н/о н/о +7.9 +3.3 73 +5 +5 1020.9 997.7
06 20.02 З 6-8
{8}
н/о н/о +13.6 +2.8 48 +12 +12 1022.0 999.2
09 20.02 СЗ 5-10
{10}
н/о н/о +18.6 +0.9 30 +18 +18 1021.2 998.8
12 20.02 СЗ 6-12
{12}
н/о н/о +19.7 0.0 27 +19 +19 1019.5 997.3
15 20.02 СЗ 4-5
{12}
н/о н/о +16.7 +0.2 33 +16 +16 1020.2 997.7
18 20.02 СЗ 2-2
{12}
н/о н/о +13.0 +2.7 50 +13 +13 1021.7 998.9
21 20.02 З 2-2
{2}
н/о н/о +10.8 +3.5 61 +10 +10 1021.8 998.8 +7.8 +20.0
00 21.02 З 3-3
{4}
н/о н/о +7.9 +3.7 75 +6 +6 1021.8 998.6
03 21.02 З 3-3
{3}
н/о н/о +8.7 +3.1 68 +7 +7 1022.2 999.0
06 21.02 ЮЗ 3-3
{4}
н/о н/о +16.2 +2.4 39 +16 +16 1023.3 1000.7
09 21.02 СЗ 3-5
{6}
н/о н/о +19.7 -2.2 23 +20 +20 1021.7 999.4
12 21.02 СЗ 3-4
{7}
н/о н/о +20.4 -4.1 19 +21 +21 комфорт 1020.0 997.8
15 21.02 В 1-1
{6}
н/о н/о +18.1 -2.8 24 +20 +20 1020.4 998.0
18 21.02 ЮВ 4-5
{6}
н/о н/о +13.4 +6.2 62 +12 +12 1021.8 999.0
21 21.02 ЮВ 4-5
{5}
н/о н/о +11.8 +6.9 72 +10 +10 1021.2 998.3 +7.5 +21.3
00 22.02 ЮВ 4-4
{5}
н/о н/о +10.7 +6.6 76 +8 +8 1019.9 997.0
03 22.02 ЮВ 4-5
{5}
н/о н/о +11.6 +6.9 73 +10 +10 1020.3 997.4
06 22.02 Ю 5-7
{8}
н/о н/о +15.2 +5.7 53 +14 +14 1021.5 998.9
09 22.02 В 6-8
{9}
н/о н/о +19.4 -0.4 26 +19 +19 1018.9 996.7
12 22.02 В 7-10
{11}
н/о н/о +20.3 +1.4 28 +20 +20 1016.8 994.7
15 22.02 В 7-9
{11}
н/о н/о +17.2 +1.4 34 +16 +16 1017.3 994.9
18 22.02 В 5-7
{11}
н/о н/о +13.6 +8.1 69 +12 +12 1018.5 995.8
21 22.02 В 4-5
{7}
н/о н/о +12.1 +10.3 89 +10 +10 1018.0 995.2 +9.6 +21.0
00 23.02 В 4-5
{7}
н/о н/о +11.6 +9.6 88 +9 +9 1017.4 994.6
03 23.02 В 5-6
{6}
н/о н/о +11.4 +9.9 90 +9 +9 1018.0 995.2
06 23.02 В 8-10
{10}
н/о н/о +16.5 +12.3 76 +15 +15 1018.4 995.9
09 23.02 ЮВ 10-13
{14}
н/о н/о +21.2 +8.8 45 +22 +22 комфорт 1016.4 994.3
12 23.02 ЮВ 8-11
{14}
н/о н/о +23.1 +3.7 28 +23 +23 комфорт 1014.7 992.8
15 23.02 В 7-9
{12}
н/о н/о +17.9 +10.8 63 +17 +17 1015.6 993.3
18 23.02 В 5-6
{12}
н/о н/о +14.9 +12.9 88 +13 +13 1017.1 994.5
21 23.02 В 4-4
{6}
н/о н/о +13.6 +13.0 96 +12 +12 1017.1 994.4 +11.2 +23.5
00 24.02 ЮВ 2-3
{6}
н/о н/о +15.0
03 24.02 Ю 3-5
{5}
н/о н/о +14.1

 

Местоположение метеостанции Минагиш (Кувейт): широта 29.07 долгота 47.53 высота над уровнем моря 189 м.

В архиве по умолчанию представлена погода в Минагише за последнюю неделю. Архивные данные за месяц целиком и за предыдущие месяцы, начиная с января 2011 года, Вы можете получить, выбрав интересующий диапазон дат из раскрывающегося списка и нажав кнопку "Ввод!".


*Определитесь, кто Вы:
робот инопланетянин человек

Внимание! Время в таблицах - всемирное. Для получения местного времени необходимо прибавить поправку, которая равна 3 ч.

Смотрите также архив погоды в соседних городах и на ближайших метеорологических станциях:

Погода в Сулайбии (Кувейт) (29 км)
Погода в Эль-Джахра (Кувейт) (31 км)
Погода в Эль-Кувейте (Кувейт) (46 км)
Погода на Экспериментальной ферме (Кувейт) (47 км)
Погода на Абраке Аль Хабари (Кувейт) (57 км)
Погода в Кувейт Сити (Кувейт) (58 км)
Погода на Метеостанции Jal Aliyah (Кувейт) (60 км)
Погода в Аль-Шуаиба (Кувейт) (63 км)
Погода в Порту Juluiah (Кувейт) (76 км)
Погода в Аль-Вафре (Кувейт) (77 км)

Пояснения к столбцам:

Ветер - указаны скорость ветра в м/с - средняя за 10 мин, порывы в срок и между сроками (в фигурных скобках) и направление, откуда дует ветер: С - северный, СВ - северо-восточный, В - восточный, ЮВ - юго-восточный, Ю - южный, ЮЗ - юго-западный, З - западный, СЗ - северо-западный.
Видимость - горизонтальная дальность видимости в метрах или километрах. При видимости от 1 до 10 км при отсутствии осадков обычно наблюдается дымка, при ухудшении видимости до 1 км и менее - туман. В сухую погоду видимость может ухудшаться дымом, пылью или мглою.
Явления - указаны атмосферные явления, наблюдавшиеся в срок или в последний час перед сроком; фигурными скобками обозначены явления, наблюдавшиеся между сроками (за 1-3 часа до срока); квадратными скобками обозначены град или гололедные отложения с указанием их диаметра в мм.
Облачность - указаны через наклонную черту общая и нижняя облачность в баллах и высота нижней границы облаков в метрах; квадратными скобками обозначены формы облаков: Ci - перистые, Cs - перисто-слоистые, Cc - перисто-кучевые, Ac - высококучевые, As - высокослоистые, Sc - слоисто-кучевые, Ns - слоисто-дождевые, Cu - кучевые, Cb - кучево-дождевые. Подробнее классификацию облаков см. в Атласе облаков (PDF).
T - Температура воздуха - температура, измеренная на высоте 2 м над землей.
Td - Температура точки росы - температура, при понижении до которой содержащийся в воздухе водяной пар достигнет насыщения.
f - Относительная влажность воздуха - влажноcть воздуха, измеренная на высоте 2 м над землей.
Te - Эффективная температура - температура, которую ощущает одетый по сезону человек в тени. Характеристика душности погоды. При расчете учитывается влияние влажности воздуха и скорости ветра на теплоощущения человека.
Tes - Эффективная температура на солнце - температура, которую ощущает человек, с поправкой на солнечный нагрев. Характеристика знойности погоды. Зависит от высоты солнца над горизонтом, облачности и скорости ветра. Ночью, в пасмурную погоду, а также при ветре 12 м/с и более поправка равна нулю.
P - Атмосферное давление - приведенное к уровню моря атмосферное давление.
Po - Атмосферное давление - измеренное на уровне метеостанции атмосферное давление.
Tmin - Минимальная температура - минимум температуры воздуха на высоте 2 м над землей.
Tmax - Максимальная температура - максимум температуры воздуха на высоте 2 м над землей.
R - Количество осадков - Количество выпавших осадков за период времени, мм. При наведении курсора мыши на число - период времени, за который выпало указанное количество осадков.
R24 - Количество осадков - Количество выпавших осадков за 24 часа, мм.
S - Снежный покров - Высота снежного покрова, см. При наведении курсора мыши на число - состояние снежного покрова и степень покрытия местности в баллах.